Weather History for Valentine, NE

Change the Weather History Date:

Sunday, January 20, 2013

  Actual Average Record
Temperature  
Mean Temperature 16 °F 24 °F  
Max Temperature 21 °F 37 °F 64 °F (1944)
Min Temperature 11 °F 11 °F -24 °F (1962)
Degree Days  
Heating Degree Days 49 41  
Month to date heating degree days 801 833  
Since 1 July heating degree days 3477 3728  
Cooling Degree Days 0 0  
Month to date cooling degree days 0 0  
Year to date cooling degree days 0 0  
Moisture  
Dew Point 10 °F    
Average Humidity 72    
Maximum Humidity 88    
Minimum Humidity 56    
Precipitation  
Precipitation T in 0.00 in 0.49 in (1973)
Month to date precipitation 0.12 0.16  
Year to date precipitation 0.12 0.16  
Snow  
Snow 0.00 in 0.10 in 6.60 in (1973)
Month to date snowfall 2.8 2.5  
Since 1 July snowfall 16.1 15.2  
Snow Depth 0.00 in    
Sea Level Pressure  
Sea Level Pressure 30.39 in    
Wind  
Wind Speed 9 mph (North)    
Max Wind Speed 18 mph    
Max Gust Speed 24 mph    
Visibility 10 miles    
Events Snow    
T = Trace of Precipitation, MM = Missing Value Source: NWS Daily Summary

Daily Weather History Graph

Daily Weather History Graph

Search for Another Location

Airport:

Trip Planner

Search our weather history database for the weather conditions in past years. The results will help you decide how hot, cold, wet, or windy it might be!

Date:

Astronomy

Jan. 20, 2013 Rise Set
Actual Time 8:07 AM CST 5:39 PM CST
Civil Twilight 7:36 AM CST 6:10 PM CST
Nautical Twilight 7:01 AM CST 6:45 PM CST
Astronomical Twilight 6:27 AM CST 7:19 PM CST
Moon 12:42 PM CST (1/20) 2:40 AM CST (1/20)
Length of Visible Light 10h 34m
Length of Day
9h 32m
Waxing Gibbous, 66% of the Moon is Illuminated
Jan 20
Waxing Gibbous
Jan 26
Full
Feb 3
Last Quarter
Feb 10
New
Feb 17
First Quarter

Hourly Weather History & Observations

Time (CST) Temp. Windchill Dew Point Humidity Pressure Visibility Wind Dir Wind Speed Gust Speed Precip Events Conditions
12:52 AM 16.0 °F - 10.9 °F 81% 30.32 in 10.0 mi Calm Calm - N/A   Clear
1:52 AM 17.1 °F 10.0 °F 10.9 °F 77% 30.30 in 10.0 mi ENE 4.6 mph - N/A   Clear
2:52 AM 16.0 °F 8.8 °F 12.0 °F 84% 30.29 in 10.0 mi East 4.6 mph - N/A   Clear
3:52 AM 17.1 °F 10.0 °F 12.0 °F 81% 30.26 in 10.0 mi SE 4.6 mph - N/A   Clear
4:52 AM 18.0 °F 7.7 °F 12.9 °F 81% 30.24 in 10.0 mi SE 8.1 mph - N/A   Clear
5:52 AM 18.0 °F 6.1 °F 12.9 °F 81% 30.25 in 10.0 mi East 10.4 mph - N/A   Mostly Cloudy
6:12 AM 17.6 °F 5.7 °F 12.2 °F 79% 30.14 in 10.0 mi ESE 10.4 mph - N/A   Overcast
6:52 AM 18.0 °F 6.1 °F 12.9 °F 81% 30.26 in 10.0 mi East 10.4 mph - N/A   Overcast
7:52 AM 16.0 °F 0.6 °F 12.0 °F 84% 30.30 in 10.0 mi ENE 16.1 mph - N/A   Overcast
8:52 AM 14.0 °F -2.0 °F 10.0 °F 84% 30.38 in 10.0 mi NE 16.1 mph - N/A   Overcast
9:52 AM 12.9 °F -2.8 °F 8.1 °F 81% 30.45 in 10.0 mi NNE 15.0 mph - N/A   Overcast
10:52 AM 15.1 °F - 6.1 °F 68% 30.48 in 10.0 mi Calm Calm - N/A   Overcast
11:08 AM 17.6 °F 10.7 °F 6.8 °F 63% 30.36 in 10.0 mi NW 4.6 mph - N/A   Overcast
11:52 AM 19.0 °F 5.6 °F 7.0 °F 59% 30.52 in 10.0 mi North 13.8 mph - N/A   Overcast
12:32 PM 19.4 °F 7.9 °F 8.6 °F 63% 30.37 in 10.0 mi North 10.4 mph - N/A   Overcast
12:52 PM 19.0 °F 6.8 °F 7.0 °F 59% 30.49 in 10.0 mi North 11.5 mph 20.7 mph N/A   Mostly Cloudy
1:52 PM 19.9 °F 7.9 °F 8.1 °F 60% 30.47 in 10.0 mi NNW 11.5 mph 19.6 mph N/A   Overcast
2:52 PM 19.9 °F 9.3 °F 9.0 °F 62% 30.47 in 10.0 mi NNW 9.2 mph - N/A   Overcast
3:52 PM 19.9 °F 8.6 °F 10.0 °F 65% 30.46 in 10.0 mi NNW 10.4 mph - N/A   Overcast
4:45 PM 19.4 °F 9.5 °F 10.4 °F 68% 30.32 in 10.0 mi NW 8.1 mph - N/A   Overcast
4:52 PM 19.0 °F 11.1 °F 10.0 °F 68% 30.45 in 10.0 mi WNW 5.8 mph - N/A   Overcast
5:16 PM 19.4 °F 11.5 °F 10.4 °F 68% 30.32 in 10.0 mi West 5.8 mph - N/A   Overcast
5:52 PM 19.9 °F 14.9 °F 10.9 °F 68% 30.45 in 10.0 mi NW 3.5 mph - N/A   Overcast
6:18 PM 17.6 °F 12.3 °F 10.4 °F 73% 30.31 in 10.0 mi WNW 3.5 mph - N/A   Overcast
6:25 PM 17.6 °F 10.7 °F 10.4 °F 73% 30.32 in 10.0 mi WNW 4.6 mph - N/A   Overcast
6:52 PM 21.0 °F 8.6 °F 12.0 °F 68% 30.44 in 10.0 mi NNW 12.7 mph - N/A   Overcast
7:52 PM 18.0 °F 5.4 °F 12.0 °F 78% 30.47 in 10.0 mi North 11.5 mph - N/A   Mostly Cloudy
8:52 PM 16.0 °F 5.3 °F 10.9 °F 81% 30.48 in 10.0 mi NW 8.1 mph - N/A   Overcast
9:52 PM 16.0 °F 5.3 °F 10.0 °F 77% 30.49 in 9.0 mi NW 8.1 mph - 0.00 in Snow Light Snow
10:52 PM 12.0 °F 0.5 °F 7.0 °F 80% 30.50 in 5.0 mi NNE 8.1 mph - 0.00 in Snow Light Snow
11:52 PM 10.9 °F 1.4 °F 6.1 °F 81% 30.51 in 9.0 mi NNE 5.8 mph - 0.00 in   Overcast